Regional Weather Roundup
Issued by NWS Cleveland, OH

Home | Current Version | Previous Version | Graphics & Text | Print | Product List | Glossary On
Versions: 1 2 3 4 5 6 7 8 9 10 11 12 13 14 15 16 17 18 19 20 21 22 23 24 25 26 27 28 29 30 31 32 33 34 35 36 37 38 39 40 41 42 43 44 45 46 47 48 49 50
000
ASUS41 KCLE 220910
RWRCLE
OHIO REGIONAL WEATHER ROUNDUP
NATIONAL WEATHER SERVICE WILMINGTON, OH
400 AM EST WED NOV 22 2017

NOTE: "FAIR" INDICATES FEW OR NO CLOUDS BELOW 12,000 FEET WITH NO
SIGNIFICANT WEATHER AND/OR OBSTRUCTIONS TO VISIBILITY.

OHZ001>008-015>018-024>027-034-035-043-044-221000-
   NORTHWEST OHIO

CITY           SKY/WX    TMP DP  RH WIND       PRES   REMARKS
DEFIANCE       CLOUDY    33  21  61 NW12G18   30.17R WCI  24
FINDLAY        CLOUDY    34  23  64 NW12      30.13R WCI  25
TOLEDO EXPRESS CLOUDY    34  25  69 NW7       30.14R WCI  28
TOLEDO EXEC    CLOUDY    34  25  69 NW8       30.14R WCI  27
LIMA           CLOUDY    33  28  81 NW14      30.13R WCI  23
$$

OHZ009>014-019>023-028>033-038-089-221000-
   NORTHEAST OHIO

CITY           SKY/WX    TMP DP  RH WIND       PRES   REMARKS
CLE-HOPKINS    FLURRIES  37  30  75 NW14G20   30.09R
CLE-LAKEFRONT  CLOUDY    38  28  67 NW17G24   30.07R
CUY CO. ARPT   NOT AVBL
LORAIN-ELYRIA  CLOUDY    35  24  64 N12G23    30.09R WCI  27
ASHTABULA      CLOUDY    36  32  85 NW7       30.03R
AKRON-CANTON   CLOUDY    35  31  85 NW9       30.04R WCI  28
WOOSTER        NOT AVBL
MANSFIELD      CLOUDY    33  28  81 NW9       30.07R WCI  25
YOUNGSTOWN     LGT SNOW  34  33  96 W7        30.01R FOG     WCI  28
$$

OHZ042-051>053-060>062-070>072-077>081-221000-
  SOUTHWEST OHIO

CITY           SKY/WX    TMP DP  RH WIND       PRES   REMARKS
CINC-COVINGTON FAIR      30  28  92 NW8       30.17R WCI  22
CINC-LUNKEN    FAIR      33  27  78 NW7       30.20R WCI  27
HAMILTON       FAIR      31  28  89 W6        30.20R WCI  25
DAYTON         FAIR      29  27  92 NW10      30.16R WCI  20
WRIGHT-PAT AFB FAIR      31  27  86 W7        30.15R WCI  24
DAYTON GENERAL FAIR      30  26  85 NW7       30.15R WCI  23
WILMINGTON     FAIR      30  29  96 NW7       30.14R WCI  23
$$

OHZ036-037-039>041-045>050-054>059-063>069-073>076-082>088-221000-
  CENTRAL AND SOUTHEAST OHIO

CITY           SKY/WX    TMP DP  RH WIND       PRES   REMARKS
COLUMBUS       CLOUDY    36  35  96 NW14      30.11R
OSU AIRPORT    MOCLDY    33  29  85 NW10      30.11R WCI  25
BOLTON FIELD   FAIR      33  29  86 NW8       30.13R WCI  25
RICKENBACK AFB CLOUDY    35  30  83 NW15      30.12R WCI  25
NEWARK         CLOUDY    37  30  75 NW7       30.09R
MARION         CLOUDY    34  28  79 NW10G20   30.11R WCI  26
LANCASTER      CLOUDY    36  32  85 NW9       30.10R
ZANESVILLE     CLOUDY    36  33  89 W5        30.08R
NEW PHILLY     CLOUDY    35  32  88 CALM      30.07R
$$




USA.gov is the U.S. government's official web portal to all federal, state and local government web resources and services.